Location: Poughquag
(41.6090°N, 73.6820°W)
Time: 11:55:31
(UTC-04:00)

ISS - Visible Passes

Search period start: 21 September 2019 00:00
Search period end: 01 October 2019 00:00
Orbit: 411 x 421 km, 51.6° (Epoch: 22 September)

Date Brightness Start Highest point End Pass type
(mag) Time Alt. Az. Time Alt. Az. Time Alt. Az.
21 Sep -2.2 20:48:20 10° W 20:51:22 32° NNW 20:51:56 30° N visible
22 Sep -2.9 19:59:35 10° WSW 20:02:48 47° NNW 20:05:39 13° NE visible
22 Sep -0.4 21:37:54 10° NW 21:38:33 13° NW 21:38:33 13° NW visible
23 Sep -1.5 20:48:55 10° WNW 20:51:26 20° NNW 20:52:07 18° N visible
24 Sep -1.8 19:59:56 10° WNW 20:02:45 25° NNW 20:05:33 10° NE visible
24 Sep -0.3 21:38:24 10° NW 21:38:29 10° NW 21:38:29 10° NW visible
25 Sep -2.3 19:11:02 10° W 19:14:06 34° NNW 19:17:10 10° NE visible
25 Sep -1.2 20:49:31 10° NW 20:51:34 15° N 20:51:52 15° N visible
26 Sep -1.3 20:00:32 10° NW 20:02:49 17° NNW 20:05:05 10° NNE visible
27 Sep -1.5 19:11:30 10° WNW 19:14:03 20° NNW 19:16:38 10° NE visible
27 Sep -1.1 20:49:44 10° NNW 20:51:23 15° N 20:51:23 15° N visible
28 Sep -1.2 20:00:58 10° NW 20:02:55 15° N 20:04:39 11° NNE visible
29 Sep -1.3 19:12:02 10° NW 19:14:07 15° N 19:16:11 10° NNE visible
29 Sep -1.2 20:49:25 10° NNW 20:50:47 16° N 20:50:47 16° N visible
30 Sep -1.5 20:00:52 10° NNW 20:03:00 16° N 20:04:02 14° NNE visible
